This demonstration page uses our WeatherBlox Daily Observations layout. Learn more.

Left ArrowRight Arrow

Hourly Observations for October 30, 2018

Temp ( °F °C ) Dew Point ( °F °C ) Humidity (%) Winds ( mph kmh ) Pressure ( in mb ) Visibility ( mi km ) Precip ( " mm )
12:53 am 00:53 Clear 49 9.4 46 7.8 90 90 Calm 29.77 1008 10 16 0.00 0.00
1:53 am 01:53 Clear 52 11.1 43 6.1 72 72 N 17 28 29.78 1009 10 16 0.00 0.00
2:53 am 02:53 Clear 50 10 41 5 71 71 N 16 26 29.80 1009 10 16 0.00 0.00
3:53 am 03:53 Clear 48 8.9 40 4.4 74 74 N 13 20 29.83 1010 10 16 0.00 0.00
4:53 am 04:53 Clear 47 8.3 40 4.4 77 77 N 17 28 29.84 1010 10 16 0.00 0.00
5:53 am 05:53 Clear 47 8.3 40 4.4 77 77 N 18 30 29.87 1012 10 16 0.00 0.00
6:53 am 06:53 Clear 47 8.3 40 4.4 77 77 N 17 28 29.88 1012 10 16 0.00 0.00
7:53 am 07:53 Clear 46 7.8 40 4.4 79 79 N 17 28 29.90 1012 10 16 0.00 0.00
8:53 am 08:53 Sunny 47 8.3 40 4.4 77 77 N 21 33 29.93 1013 10 16 0.00 0.00
9:53 am 09:53 Sunny 49 9.4 40 4.4 71 71 N 20 31 29.96 1014 10 16 0.00 0.00
10:53 am 10:53 Sunny 49 9.4 40 4.4 71 71 N 21 33 29.97 1015 10 16 0.00 0.00
11:53 am 11:53 Sunny 51 10.6 40 4.4 66 66 N 17 28 29.98 1015 10 16 0.00 0.00
12:53 pm 12:53 Mostly Sunny 56 13.3 39 3.9 53 53 N 22 35 29.98 1015 10 16 0.00 0.00
1:53 pm 13:53 Sunny 56 13.3 38 3.3 51 51 N 22 35 29.96 1015 10 16 0.00 0.00
2:53 pm 14:53 Sunny 55 12.8 37 2.8 51 51 N 20 31 29.96 1014 10 16 0.00 0.00
3:53 pm 15:53 Sunny 56 13.3 35 1.7 46 46 N 21 33 29.97 1015 10 16 0.00 0.00
4:53 pm 16:53 Mostly Cloudy 55 12.8 35 1.7 47 47 NNE 17 28 29.97 1015 10 16 0.00 0.00
5:53 pm 17:53 Mostly Sunny 54 12.2 36 2.2 51 51 N 8 13 29.99 1016 10 16 0.00 0.00
6:53 pm 18:53 Mostly Clear 51 10.6 37 2.8 59 59 N 5 7 30.01 1016 10 16 0.00 0.00
7:53 pm 19:53 Cloudy 51 10.6 37 2.8 59 59 N 8 13 30.02 1017 10 16 0.00 0.00
8:53 pm 20:53 Mostly Clear 49 9.4 38 3.3 66 66 N 7 11 30.04 1017 10 16 0.00 0.00
9:53 pm 21:53 Cloudy 49 9.4 37 2.8 64 64 NNW 6 9 30.06 1018 10 16 0.00 0.00
10:53 pm 22:53 Mostly Cloudy 48 8.9 37 2.8 66 66 NNW 6 9 30.06 1018 10 16 0.00 0.00
11:53 pm 23:53 Clear 47 8.3 37 2.8 69 69 NNW 6 9 30.07 1018 10 16 0.00 0.00

Powered by AerisWeather